RH
99 99 100 100 100 100 98 98 99 100 99 100 100 98 97 99 99 100 99 100 100 98 94 96 91 90 93 97 96 95 96 89 87 77 75 82 88 98 100 100 100 100 100
98 98 98 100 99 100 99 100 100 100 100 100 100 100 100 99 99 99 100 100 100 100 99 64 98 99 99 99 96 95 96 90 87 92 86 95 93 95 94 100 100 100 100
100 95 97 99 100 100 100 100 99 99 100 100 100 100 100 100 100 100 100 100 99 99 99 100 99 100 100 100 99 98 98 96 93 94 88 91 96 98 100 100 100 100 100
97 94 96 98 99 100 100 100 100 100 99 99 100 100 99 100 100 99 99 99 99 99 100 99 100 100 100 100 100 100 99 97 90 88 94 99 99 100 100 100 100 100 100
90 90 92 92 95 99 99 100 100 100 100 100 100 99 100 99 99 99 98 100 100 100 99 100 100 99 100 100 100 100 100 96 92 97 98 99 99 99 98 99 99 100 100
91 91 89 90 93 97 100 100 100 100 100 100 100 100 100 100 100 100 100 100 99 100 100 100 100 100 100 100 100 98 94 94 99 100 98 98 98 98 100 100 100 100 99
97 95 93 92 92 95 96 99 100 100 100 100 100 100 100 100 100 100 100 99 99 99 99 99 100 100 100 100 100 100 100 100 100 99 99 99 98 97 99 100 100 96 90
98 98 97 96 95 98 99 99 99 100 100 100 100 100 100 100 99 97 99 98 96 98 98 100 100 100 99 95 100 100 100 100 100 100 100 100 100 99 99 98 98 97 100
98 100 100 99 98 98 100 99 99 97 99 97 98 100 100 100 100 99 100 99 95 97 98 99 99 100 99 100 99 100 99 100 100 99 100 100 100 100 100 100 100 100 100
90 96 95 98 97 98 96 98 98 97 94 96 94 95 100 100 100 100 100 100 100 100 99 96 98 100 99 100 100 100 98 97 99 98 98 100 99 100 99 100 100 100 100
70 73 79 83 91 91 91 91 92 92 92 94 95 97 91 95 99 100 100 100 100 100 100 100 98 99 99 98 97 97 98 99 98 97 96 96 98 96 99 99 100 100 100
55 59 62 63 70 78 85 87 89 90 90 91 90 90 94 94 98 99 100 99 99 99 100 98 98 99 98 96 97 98 97 97 98 96 96 96 97 95 98 96 97 98 99
47 49 50 53 51 55 60 69 78 82 85 85 88 91 92 93 96 98 100 100 98 97 96 96 96 98 99 98 97 96 97 97 97 97 97 97 97 98 98 97 97 100 98
46 49 51 51 48 46 56 56 66 75 75 78 86 92 92 92 96 97 96 95 99 98 96 92 93 93 95 95 93 93 93 94 96 98 98 97 98 96 97 97 97 96 96
49 51 57 55 55 51 55 72 71 92 82 78 86 87 94 91 95 96 97 95 95 94 94 92 92 94 94 94 96 95 94 96 98 96 96 97 97 98 98 97 97 97 97
59 58 60 59 58 58 58 58 77 84 89 91 90 90 91 91 94 95 96 96 81 85 88 88 92 92 88 87 91 94 93 95 97 95 96 96 96 97 98 98 98 97 97
76 68 65 65 65 66 66 68 69 71 81 96 89 86 85 86 87 89 91 90 82 76 76 82 82 81 73 70 72 73 77 83 83 92 92 92 90 94 94 96 96 96 96
81 76 75 73 74 74 74 77 75 74 72 70 80 79 81 80 82 82 84 74 70 70 68 70 76 74 70 71 77 78 84 90 83 77 82 83 80 76 73 69 70 70 66
74 72 76 74 74 72 72 71 68 66 65 65 65 71 77 83 78 80 83 82 77 72 70 69 73 77 80 86 86 92 90 90 84 91 91 86 87 74 70 70 69 63 53
70 72 70 70 68 66 65 66 64 64 63 64 66 86 75 76 72 74 77 83 81 79 81 75 78 84 87 84 84 87 88 84 86 88 84 88 88 74 72 70 66 59 54
67 64 65 60 61 60 62 64 59 63 67 63 64 96 72 82 77 74 76 83 83 82 88 87 88 84 82 80 83 88 88 91 89 90 82 90 83 82 74 70 65 60 55
60 62 59 58 56 61 64 63 69 69 74 84 74 72 88 86 78 80 88 90 92 88 86 92 92 86 88 91 90 91 88 91 92 95 96 84 82 80 75 74 74 70 59
60 64 64 57 62 65 64 70 69 83 76 72 84 80 80 85 81 85 84 92 90 94 96 91 96 95 95 96 96 96 95 98 98 100 100 95 78 94 82 78 72 73 73
61 68 66 63 66 69 78 78 76 75 75 75 79 88 92 85 83 84 91 95 89 94 97 98 99 99 100 100 100 100 100 100 100 100 100 95 94 91 83 72 74 80 75
68 75 70 71 75 75 77 83 79 78 82 87 91 93 90 88 91 93 92 93 95 92 95 98 99 97 100 100 100 100 72 68 70 78 100 94 89 85 89 79 87 73 82
79 77 76 79 78 86 84 85 86 86 83 85 89 93 85 83 83 88 92 88 95 91 93 93 94 100 98 100 100 82 79 74 65 67 90 96 91 88 93 81 81 77 77
Wind_Speed
28 21 23 23 23 27 26 20 13 11 8 6 4 12 14 19 22 24 24 25 27 29 24 23 33 30 24 25 27 27 25 25 14 23 20 20 21 25 28 34 37 40 45
31 33 33 29 39 38 22 19 18 16 14 10 9 2 5 12 14 20 24 25 26 26 28 28 41 31 29 30 28 29 27 26 21 15 20 19 23 27 33 34 37 39 40
35 32 32 34 29 25 27 23 25 23 24 23 20 17 14 13 8 4 4 14 27 28 28 30 34 29 30 30 31 28 26 25 23 20 26 20 20 22 27 30 33 35 34
21 23 27 31 30 33 30 30 33 33 33 32 29 25 23 22 19 14 11 11 12 13 25 31 29 28 28 29 28 28 28 25 24 21 17 16 17 20 25 23 20 25 24
29 30 34 34 37 36 33 34 36 37 35 32 30 33 31 30 28 23 15 14 13 17 18 21 31 33 34 33 28 24 24 21 22 15 15 14 15 13 19 19 22 22 24
33 36 35 38 36 35 37 37 37 33 33 33 33 32 35 33 27 25 20 16 15 16 17 17 12 10 20 27 30 29 25 20 19 16 16 13 20 21 21 23 19 10 4
34 34 37 38 35 33 28 30 32 33 31 33 33 31 32 38 31 27 26 22 21 21 21 21 16 15 14 12 16 26 28 27 29 25 23 22 22 27 24 22 24 24 20
34 34 34 30 27 25 27 30 29 28 29 30 30 31 31 39 36 29 24 22 24 24 25 26 23 22 20 17 14 12 11 12 12 17 20 16 18 20 27 30 32 24 15
27 27 29 25 25 28 30 28 27 29 29 31 31 31 30 33 39 33 24 26 27 27 27 30 30 26 23 16 9 3 3 5 5 6 5 5 8 16 22 27 23 20 3
22 23 25 24 29 28 26 25 22 23 25 23 26 30 28 29 33 33 28 24 24 24 27 31 33 29 24 18 13 5 6 7 7 7 7 7 5 5 3 6 11 17 10
23 24 23 27 25 26 25 24 24 21 22 24 23 23 29 31 32 31 31 30 25 22 23 25 27 27 26 24 20 17 11 7 9 11 14 15 14 16 14 10 5 1 5
20 20 21 20 20 19 20 21 24 24 23 23 23 22 24 27 28 30 28 25 22 20 19 22 23 22 25 27 25 20 16 16 16 21 23 22 22 23 19 20 17 13 10
20 21 20 21 20 20 21 21 22 23 22 21 22 21 23 24 27 27 25 22 21 19 18 18 18 22 21 23 26 23 22 21 20 21 19 18 21 18 19 23 21 22 20
20 20 20 21 21 21 19 20 20 22 21 20 21 20 21 23 26 27 27 25 21 18 16 17 17 17 19 21 22 24 23 22 19 16 15 14 15 17 19 17 17 21 25
18 19 20 18 19 19 17 14 16 15 18 17 17 17 19 20 25 23 21 24 22 18 16 14 17 17 18 19 19 20 21 19 17 17 15 15 15 14 16 16 17 18 18
18 18 19 18 19 18 17 15 13 14 12 14 16 17 15 17 21 22 19 17 20 17 14 15 16 16 16 15 15 15 16 16 15 13 13 13 14 13 12 14 16 16 14
16 15 16 15 16 16 16 16 16 14 12 10 16 17 19 19 21 23 22 17 13 16 15 14 15 16 16 15 15 14 13 13 12 12 12 12 10 10 10 11 12 12 12
15 13 15 15 15 16 15 15 15 15 17 17 14 16 20 20 19 21 22 15 14 15 14 14 14 14 14 14 14 14 13 13 12 12 12 11 11 10 9 10 9 8 8
14 14 15 14 14 14 15 15 15 16 16 17 17 15 21 20 15 16 17 15 14 13 14 13 13 13 13 13 11 11 10 10 11 11 11 11 10 9 9 8 8 8 5
12 12 13 14 14 14 15 15 15 15 16 15 16 11 18 19 16 16 15 14 13 12 12 12 11 11 11 11 11 11 12 11 11 11 9 9 9 8 8 8 7 6 6
12 13 13 13 13 14 15 15 16 16 16 15 15 6 14 13 15 14 14 13 13 12 12 11 11 10 10 11 11 10 10 10 10 10 10 10 9 9 8 7 7 7 6
12 13 14 14 14 15 16 16 16 16 16 15 14 12 11 12 13 13 11 10 11 10 10 10 9 9 9 10 10 9 9 9 9 9 10 8 8 7 6 6 6 5 5
12 14 15 15 14 14 16 15 16 16 16 17 16 14 13 12 12 11 11 10 10 9 9 9 9 8 8 8 8 8 7 7 8 8 9 9 7 8 6 6 5 5 6
13 14 14 15 15 15 15 16 16 16 16 16 16 14 13 12 12 11 10 8 9 9 7 7 6 7 8 7 7 8 8 8 6 5 7 8 8 7 5 4 5 5 5
14 14 15 15 15 15 16 15 16 16 17 17 16 14 13 13 12 11 9 9 8 8 7 6 5 6 6 7 7 8 11 11 8 3 5 5 5 5 5 5 6 4 4
17 17 17 17 17 16 16 16 16 16 16 16 16 14 14 14 13 12 10 9 8 7 8 7 6 6 6 4 5 10 10 12 11 6 7 5 5 4 5 3 4 3 3
Wind_Direction
53 53 54 58 53 51 44 41 16 8 1 348 268 234 246 235 235 228 226 222 219 220 234 254 258 246 237 236 234 237 239 243 248 266 265 255 247 243 237 235 237 234 231
35 41 43 39 48 50 43 48 36 28 27 28 35 8 260 244 242 245 239 233 227 225 231 236 240 238 235 238 238 237 237 239 244 245 257 247 240 238 242 239 237 230 223
26 33 42 47 56 58 47 46 49 46 42 41 48 43 32 29 17 1 279 241 235 236 233 230 239 236 231 233 236 235 233 235 236 240 253 241 240 244 235 233 231 228 226
40 40 46 49 43 46 46 43 48 46 44 42 40 40 36 26 14 352 323 296 271 267 248 248 245 237 239 239 234 232 233 235 239 241 242 244 226 230 225 223 220 216 207
34 34 38 44 43 42 40 39 43 43 42 42 38 39 36 30 21 5 350 344 329 304 286 273 254 256 246 238 234 235 240 237 242 228 237 225 218 213 215 217 218 205 203
27 29 32 37 36 35 36 37 40 39 38 40 37 36 33 27 27 31 27 17 7 0 342 310 308 290 259 250 246 243 249 234 236 227 234 226 224 223 219 212 202 168 194
28 30 32 32 33 33 34 36 37 37 36 37 36 35 33 28 30 37 36 35 32 28 18 1 351 332 328 292 251 247 247 247 246 241 237 229 229 222 218 210 203 199 208
30 30 35 31 34 34 36 36 36 37 37 36 35 34 33 28 31 36 38 40 41 38 31 20 17 3 352 343 314 267 248 249 261 248 245 233 226 227 221 220 214 206 191
34 33 39 35 36 37 36 33 33 35 35 35 35 32 31 28 26 30 31 33 38 36 33 30 23 16 8 1 354 317 49 36 54 76 103 164 216 222 222 217 208 175 155
31 36 37 35 36 35 37 35 38 38 37 36 37 35 31 29 25 27 30 28 25 19 23 25 26 22 21 26 34 39 74 27 6 42 17 13 25 11 295 202 210 202 165
28 27 29 31 30 31 32 32 30 29 31 30 29 28 28 25 22 22 24 30 24 22 22 20 21 22 28 39 47 50 45 55 62 73 67 48 43 50 38 42 22 274 179
23 26 29 28 31 29 30 28 26 22 23 21 19 20 20 19 19 17 19 23 27 30 24 26 23 27 35 40 45 48 60 63 65 67 62 52 47 61 60 67 60 65 75
22 22 21 23 23 24 26 26 24 21 19 18 14 13 9 11 11 10 11 12 18 21 20 23 26 31 35 41 42 46 48 45 46 52 53 51 60 57 71 75 79 78 82
17 19 14 18 14 17 20 22 24 19 16 16 12 8 4 4 4 2 3 4 5 10 15 17 23 28 32 36 39 42 43 43 41 42 44 44 47 46 45 56 57 67 65
14 12 14 12 12 10 19 26 25 24 23 15 10 6 6 4 358 354 353 0 358 1 6 15 20 22 24 25 29 31 30 31 34 35 40 38 41 45 44 48 56 64 73
6 7 5 4 3 5 4 4 11 19 21 27 29 18 5 359 357 359 356 353 3 13 16 18 19 18 22 22 23 24 25 25 25 31 37 39 42 43 42 46 56 61 67
359 359 354 358 357 355 354 353 348 351 354 17 21 14 8 359 358 359 358 352 9 17 21 19 19 15 13 15 16 19 22 21 20 29 34 35 38 42 46 51 55 62 62
353 354 353 347 347 347 344 341 338 341 341 343 354 6 2 357 359 4 3 4 7 15 15 15 11 10 9 12 11 11 11 13 20 25 30 32 32 35 41 49 57 67 81
348 347 345 338 336 335 334 334 333 333 333 333 336 347 353 344 354 4 9 13 6 6 3 7 6 5 3 6 5 3 12 14 18 21 25 31 24 35 46 55 56 54 69
343 341 339 334 330 331 331 329 326 327 325 329 333 349 347 347 353 358 3 5 2 3 359 360 2 359 359 0 0 3 9 14 14 20 24 27 25 35 41 39 38 48 58
336 334 333 328 329 327 326 327 321 321 319 321 327 358 1 343 344 349 353 358 356 354 355 353 358 1 360 2 1 4 7 13 15 15 15 20 18 26 30 40 43 41 45
334 334 331 329 327 328 329 317 320 320 316 316 316 319 331 330 337 338 349 352 348 348 346 351 352 358 1 3 5 2 8 11 8 1 6 8 13 23 25 28 29 41 44
335 333 328 326 328 325 322 322 320 318 318 314 312 310 314 319 323 325 328 334 337 342 349 347 354 355 358 4 8 8 7 5 2 359 352 358 8 11 17 33 28 35 39
327 326 322 322 321 319 316 318 313 313 313 310 309 310 311 310 309 312 315 325 326 327 336 342 351 360 3 12 9 10 8 360 355 346 4 351 2 8 17 30 47 26 41
313 310 309 312 311 311 310 310 312 311 309 308 306 308 309 307 307 305 308 314 320 316 319 326 324 336 351 2 10 14 9 8 8 36 28 354 3 5 5 10 9 32 24
300 301 302 301 301 299 302 301 303 306 305 304 304 301 300 301 300 301 302 302 302 309 304 304 304 312 319 327 335 353 2 6 8 54 50 1 357 3 4 18 6 7 37